• In Russia
  • List of Countries
  • For 7 days
  • Water Temperature
  • Satellite Maps
  • Weather Map
  • Weather Widgets
  • user-avatar
    Login

    Hourly Weather Podlopatki

    Today, 16 July, Monday

    Time Temperature Precipitation Wind Pressure Humidity
    00:00 +20°C° 0.3 mm 1 mps 703 mmHg 83%
    01:00 +20°C° 0 mm 1 mps 703 mmHg 85%
    02:00 +20°C° 0.1 mm 1 mps 703 mmHg 85%
    03:00 +19°C° 0.1 mm 1 mps 703 mmHg 85%
    04:00 +19°C° 0.1 mm 1 mps 703 mmHg 86%
    05:00 +20°C° 0.1 mm 1 mps 703 mmHg 82%
    06:00 +21°C° 0.1 mm 1 mps 703 mmHg 78%
    07:00 +22°C° 0 mm 1 mps 703 mmHg 72%
    08:00 +24°C° 0.3 mm 1 mps 703 mmHg 67%
    09:00 +25°C° 0.3 mm 1 mps 703 mmHg 63%
    10:00 +27°C° 0.3 mm 1 mps 703 mmHg 58%
    11:00 +27°C° 0.6 mm 1 mps 703 mmHg 54%
    12:00 +28°C° 0.6 mm 1 mps 703 mmHg 51%
    13:00 +29°C° 0.6 mm 2 mps 703 mmHg 48%
    14:00 +29°C° 0.2 mm 2 mps 703 mmHg 47%
    15:00 +29°C° 0.2 mm 2 mps 703 mmHg 47%
    16:00 +29°C° 0.2 mm 2 mps 703 mmHg 47%
    17:00 +28°C° 0.1 mm 1 mps 703 mmHg 52%
    18:00 +27°C° 0.1 mm 1 mps 703 mmHg 56%
    19:00 +26°C° 0.1 mm 1 mps 702 mmHg 61%
    20:00 +24°C° 0.1 mm 1 mps 703 mmHg 65%
    21:00 +23°C° 0.1 mm 1 mps 703 mmHg 69%
    22:00 +21°C° 0.1 mm 1 mps 703 mmHg 73%
    23:00 +20°C° 0 mm 1 mps 703 mmHg 74%

    Tomorrow, 17 July, Tuesday

    Time Temperature Precipitation Wind Pressure Humidity
    00:00 +20°C° 0 mm 1 mps 703 mmHg 76%
    01:00 +19°C° 0 mm 1 mps 703 mmHg 77%
    02:00 +19°C° 0 mm 1 mps 703 mmHg 79%
    03:00 +19°C° 0 mm 1 mps 703 mmHg 81%
    04:00 +17°C° 0 mm 2 mps 703 mmHg 83%
    05:00 +19°C° 0.1 mm 2 mps 704 mmHg 78%
    06:00 +20°C° 0.1 mm 2 mps 704 mmHg 74%
    07:00 +23°C° 0.1 mm 2 mps 704 mmHg 70%
    08:00 +25°C° 0 mm 3 mps 704 mmHg 63%
    09:00 +26°C° 0 mm 3 mps 704 mmHg 57%
    10:00 +28°C° 0 mm 4 mps 704 mmHg 50%
    11:00 +29°C° 0.1 mm 4 mps 704 mmHg 48%
    12:00 +30°C° 0.1 mm 4 mps 704 mmHg 45%
    13:00 +32°C° 0.1 mm 4 mps 703 mmHg 43%
    14:00 +32°C° 0.1 mm 4 mps 703 mmHg 42%
    15:00 +32°C° 0.1 mm 4 mps 703 mmHg 42%
    16:00 +32°C° 0.1 mm 4 mps 703 mmHg 41%
    17:00 +30°C° 0.1 mm 4 mps 703 mmHg 46%
    18:00 +28°C° 0.1 mm 3 mps 703 mmHg 51%
    19:00 +27°C° 0.1 mm 3 mps 703 mmHg 56%
    20:00 +25°C° 0 mm 3 mps 703 mmHg 61%
    21:00 +22°C° 0 mm 3 mps 703 mmHg 66%
    22:00 +20°C° 0 mm 2 mps 703 mmHg 71%
    23:00 +20°C° 0.1 mm 2 mps 703 mmHg 74%

    Day after tomorrow, 18 July, Wednesday

    Time Temperature Precipitation Wind Pressure Humidity
    00:00 +19°C° 0.1 mm 2 mps 703 mmHg 76%
    01:00 +18°C° 0.1 mm 2 mps 703 mmHg 79%
    02:00 +18°C° 0.2 mm 2 mps 703 mmHg 80%
    03:00 +17°C° 0.2 mm 2 mps 703 mmHg 82%
    04:00 +17°C° 0.2 mm 2 mps 703 mmHg 83%
    05:00 +19°C° 0 mm 2 mps 703 mmHg 78%
    06:00 +20°C° 0 mm 2 mps 703 mmHg 72%
    07:00 +23°C° 0 mm 2 mps 703 mmHg 66%
    08:00 +25°C° 0 mm 2 mps 704 mmHg 61%
    09:00 +26°C° 0 mm 3 mps 704 mmHg 55%
    10:00 +28°C° 0 mm 3 mps 704 mmHg 49%
    11:00 +29°C° 0 mm 3 mps 704 mmHg 46%
    12:00 +31°C° 0 mm 3 mps 703 mmHg 43%
    13:00 +33°C° 0 mm 3 mps 703 mmHg 40%
    14:00 +31°C° 0.1 mm 3 mps 703 mmHg 41%
    15:00 +31°C° 0.1 mm 2 mps 703 mmHg 43%
    16:00 +31°C° 0.1 mm 2 mps 703 mmHg 44%
    17:00 +30°C° 0 mm 2 mps 703 mmHg 49%
    18:00 +28°C° 0 mm 2 mps 703 mmHg 53%
    19:00 +27°C° 0 mm 2 mps 703 mmHg 58%
    20:00 +25°C° 0.2 mm 1 mps 703 mmHg 63%
    21:00 +24°C° 0.2 mm 1 mps 703 mmHg 69%
    22:00 +22°C° 0.2 mm 1 mps 703 mmHg 75%
    23:00 +22°C° 0.6 mm 1 mps 703 mmHg 78%

    19 July, Thursday

    Time Temperature Precipitation Wind Pressure Humidity
    00:00 +21°C° 0.6 mm 1 mps 703 mmHg 81%
    01:00 +21°C° 0.6 mm 1 mps 703 mmHg 84%
    02:00 +20°C° 0.3 mm 1 mps 703 mmHg 86%
    03:00 +20°C° 0.3 mm 1 mps 703 mmHg 87%
    04:00 +20°C° 0.3 mm 1 mps 703 mmHg 89%
    05:00 +21°C° 0.1 mm 1 mps 703 mmHg 86%
    06:00 +22°C° 0.1 mm 1 mps 704 mmHg 82%
    07:00 +23°C° 0.1 mm 1 mps 704 mmHg 79%
    08:00 +25°C° 0.3 mm 1 mps 704 mmHg 73%
    09:00 +27°C° 0.3 mm 1 mps 704 mmHg 67%
    10:00 +29°C° 0.3 mm 1 mps 704 mmHg 61%
    11:00 +30°C° 0.1 mm 1 mps 703 mmHg 56%
    12:00 +31°C° 0.1 mm 1 mps 703 mmHg 50%
    13:00 +33°C° 0.1 mm 1 mps 703 mmHg 44%
    14:00 +34°C° 0 mm 2 mps 702 mmHg 42%
    15:00 +34°C° 0 mm 2 mps 702 mmHg 41%
    16:00 +34°C° 0 mm 2 mps 702 mmHg 39%
    17:00 +32°C° 0 mm 2 mps 702 mmHg 45%
    18:00 +31°C° 0 mm 3 mps 701 mmHg 51%
    19:00 +29°C° 0 mm 3 mps 701 mmHg 57%
    20:00 +28°C° 0.2 mm 3 mps 701 mmHg 62%
    21:00 +26°C° 0.2 mm 3 mps 701 mmHg 68%
    22:00 +25°C° 0.2 mm 3 mps 700 mmHg 73%
    23:00 +24°C° 0.4 mm 3 mps 700 mmHg 77%

    20 July, Friday

    Time Temperature Precipitation Wind Pressure Humidity
    00:00 +23°C° 0.4 mm 2 mps 700 mmHg 80%
    01:00 +23°C° 0.4 mm 2 mps 699 mmHg 84%
    02:00 +21°C° 1.3 mm 2 mps 699 mmHg 87%
    03:00 +21°C° 1.3 mm 2 mps 699 mmHg 90%
    04:00 +20°C° 1.3 mm 2 mps 699 mmHg 94%
    05:00 +21°C° 0.6 mm 2 mps 699 mmHg 90%
    06:00 +23°C° 0.6 mm 2 mps 699 mmHg 87%
    07:00 +24°C° 0.6 mm 2 mps 700 mmHg 84%
    08:00 +24°C° 0.1 mm 2 mps 700 mmHg 81%
    09:00 +25°C° 0.1 mm 2 mps 700 mmHg 78%
    10:00 +25°C° 0.1 mm 2 mps 700 mmHg 75%
    11:00 +27°C° 0.1 mm 3 mps 700 mmHg 69%
    12:00 +28°C° 0.1 mm 3 mps 700 mmHg 64%
    13:00 +29°C° 0.1 mm 4 mps 700 mmHg 58%
    14:00 +28°C° 0 mm 4 mps 700 mmHg 58%
    15:00 +28°C° 0 mm 4 mps 700 mmHg 58%
    16:00 +28°C° 0 mm 4 mps 700 mmHg 58%
    17:00 +26°C° 0.6 mm 4 mps 700 mmHg 64%
    18:00 +23°C° 0.6 mm 4 mps 700 mmHg 70%
    19:00 +21°C° 0.6 mm 4 mps 700 mmHg 76%
    20:00 +20°C° 1 mm 3 mps 700 mmHg 79%
    21:00 +18°C° 1 mm 3 mps 700 mmHg 83%
    22:00 +17°C° 1 mm 2 mps 700 mmHg 87%
    23:00 +17°C° 0.5 mm 2 mps 700 mmHg 87%

    21 July, Saturday

    Time Temperature Precipitation Wind Pressure Humidity
    00:00 +16°C° 0.5 mm 2 mps 700 mmHg 88%
    01:00 +16°C° 0.5 mm 2 mps 700 mmHg 88%
    02:00 +15°C° 0.1 mm 1 mps 700 mmHg 90%
    03:00 +15°C° 0.1 mm 1 mps 700 mmHg 91%
    04:00 +14°C° 0.1 mm 1 mps 700 mmHg 92%
    05:00 +15°C° 0 mm 1 mps 701 mmHg 86%
    06:00 +16°C° 0 mm 1 mps 701 mmHg 80%
    07:00 +18°C° 0 mm 1 mps 701 mmHg 75%
    08:00 +19°C° 0 mm 2 mps 702 mmHg 69%
    09:00 +20°C° 0 mm 3 mps 702 mmHg 63%
    10:00 +22°C° 0 mm 4 mps 702 mmHg 57%
    11:00 +21°C° 0.2 mm 5 mps 702 mmHg 59%
    12:00 +21°C° 0.2 mm 5 mps 703 mmHg 61%
    13:00 +21°C° 0.2 mm 6 mps 703 mmHg 63%
    14:00 +20°C° 0 mm 6 mps 703 mmHg 63%
    15:00 +20°C° 0 mm 6 mps 703 mmHg 63%
    16:00 +20°C° 0 mm 5 mps 704 mmHg 63%
    17:00 +19°C° 0 mm 5 mps 704 mmHg 67%
    18:00 +19°C° 0 mm 4 mps 705 mmHg 71%
    19:00 +18°C° 0 mm 3 mps 705 mmHg 74%
    20:00 +17°C° 0 mm 2 mps 706 mmHg 77%
    21:00 +16°C° 0 mm 2 mps 706 mmHg 79%
    22:00 +16°C° 0 mm 2 mps 706 mmHg 82%
    23:00 +15°C° 0 mm 2 mps 706 mmHg 83%
    Show more